Wind_Speed
36 36 36 36 36 36 35 34 33 33 32 31 30 29 30 29 28 28 27 27 27 27 26 26 25 25 26 25 25 25 25 25 26 26 26 27 27 27 27 27 28 28 28
38 38 38 38 38 38 37 37 36 35 34 33 33 32 31 31 31 30 29 29 29 29 28 27 27 27 27 27 27 27 27 28 28 27 28 28 28 29 29 29 29 29 29
40 40 40 40 40 40 39 39 39 38 37 36 34 33 33 33 32 32 31 30 30 30 30 29 29 28 28 28 29 29 29 29 30 30 29 29 29 30 30 30 30 30 31
40 41 41 41 41 41 41 41 41 40 38 38 36 35 35 34 34 33 33 33 32 32 31 31 30 30 30 30 30 30 31 31 31 32 32 32 31 31 32 32 32 32 32
40 40 41 41 41 41 41 42 42 42 40 39 38 37 37 36 36 35 35 35 34 33 33 32 32 32 32 32 32 32 33 33 33 33 34 34 34 33 33 34 34 34 34
40 40 40 40 40 41 41 42 42 42 42 41 39 39 38 38 37 37 37 36 36 35 34 35 35 35 34 34 34 34 35 35 35 35 36 36 37 37 36 37 36 36 36
39 39 39 39 40 40 41 41 42 42 42 41 40 40 40 39 38 38 39 38 37 37 37 37 37 37 37 37 37 37 37 37 38 38 38 39 39 39 39 38 38 39 39
39 38 39 39 40 41 41 41 42 42 43 42 42 41 40 39 39 40 40 40 39 38 38 38 38 38 39 39 39 39 39 40 40 41 41 41 41 41 40 40 39 40 41
38 38 39 39 40 41 41 41 42 43 43 43 43 43 42 42 41 40 41 42 41 41 41 40 40 40 41 41 41 42 42 42 43 43 43 43 44 43 44 44 43 42 42
37 38 39 40 40 40 41 41 41 42 43 43 43 43 44 43 43 42 42 43 43 43 43 44 43 43 44 44 44 44 45 45 45 45 46 46 46 46 46 46 46 46 46
37 38 39 39 40 41 41 41 41 41 43 43 43 43 44 43 44 45 44 45 45 45 46 46 46 46 46 46 47 47 47 47 48 48 48 48 49 48 48 48 48 48 48
36 37 38 40 41 41 41 41 41 42 42 42 42 43 44 44 45 46 47 47 47 47 48 48 49 49 48 49 49 49 50 50 50 50 51 51 51 51 51 50 50 49 49
34 35 38 40 40 41 42 41 42 43 42 42 42 43 44 44 46 47 48 49 50 50 50 50 51 50 50 51 52 52 53 53 53 53 53 53 53 53 53 52 52 51 51
33 34 36 37 38 39 41 41 41 42 43 44 44 45 45 45 46 48 49 49 51 51 51 51 52 52 53 53 54 55 55 56 56 55 55 55 54 54 54 54 54 54 54
34 34 33 35 38 39 40 41 42 42 43 43 44 44 45 46 47 48 49 50 51 51 52 52 53 54 54 55 55 55 55 55 55 55 55 56 56 56 56 55 56 56 55
34 35 35 35 37 38 39 40 42 42 42 43 44 45 46 46 47 48 49 50 51 53 53 53 53 54 55 55 55 55 56 56 56 56 56 56 56 57 57 57 57 57 56
32 33 34 34 36 39 40 41 42 42 43 43 44 45 46 48 48 49 49 50 50 52 53 53 53 54 54 54 55 56 56 56 56 57 57 57 57 58 57 57 57 57 57
32 33 34 34 35 37 40 41 42 43 43 43 43 44 45 47 48 49 49 49 50 51 52 53 53 54 54 54 55 56 56 56 57 58 58 58 58 57 57 57 57 57 57
33 33 34 35 35 36 38 40 41 42 42 43 44 44 44 45 46 48 49 50 50 51 52 53 53 53 53 54 54 55 55 56 56 56 56 56 56 56 56 56 56 56 56
33 34 34 35 36 37 38 40 41 42 41 42 42 43 44 45 46 48 48 49 50 50 51 51 51 52 51 51 52 52 53 53 53 53 53 54 53 54 54 53 54 54 54
34 34 35 36 37 37 38 39 39 40 41 43 42 42 43 44 45 47 48 48 48 49 50 51 51 50 49 48 48 48 49 49 49 49 50 50 51 51 50 51 52 53 53
35 35 36 37 38 38 38 39 40 41 42 42 42 42 43 44 45 47 47 47 47 48 48 48 48 47 46 46 46 47 47 48 48 48 49 49 49 49 50 51 51 52 52
35 36 36 36 37 38 38 39 40 40 41 42 42 42 43 45 46 46 45 46 46 46 46 46 46 45 45 45 45 45 46 46 46 46 47 47 47 48 48 49 50 50 50
36 36 37 37 37 38 39 39 40 40 42 42 42 42 43 44 44 44 45 45 44 44 44 45 44 44 44 44 43 44 45 46 45 45 45 46 46 47 49 49 48 48 48
37 38 38 38 38 39 39 40 40 41 41 42 43 43 43 43 43 44 45 44 43 43 43 43 44 43 43 43 43 44 44 44 44 44 45 46 45 46 46 46 45 45 45
38 38 37 37 38 39 38 39 40 40 40 41 41 41 41 42 42 43 43 42 41 41 41 41 41 42 42 42 42 43 44 44 44 43 43 44 44 44 43 42 43 42 42
Wind_Direction
250 251 251 251 250 250 250 251 251 253 255 255 257 259 259 259 261 261 263 264 266 268 270 272 274 275 275 275 274 274 275 277 279 281 282 282 283 284 284 284 285 285 286
250 251 251 251 250 250 250 251 252 253 255 256 256 258 259 259 261 262 264 265 267 268 270 271 274 275 275 274 274 274 275 275 277 281 282 282 283 284 284 284 284 284 285
252 252 251 251 250 250 250 251 252 253 254 255 255 257 259 258 260 262 264 266 267 268 269 271 272 274 275 274 274 274 275 276 277 279 281 282 282 283 283 283 284 285 285
252 252 251 250 249 250 250 251 252 253 254 255 255 256 258 258 260 261 263 266 267 268 269 270 271 272 274 274 275 275 276 277 279 280 281 281 282 283 283 283 284 285 285
252 252 252 250 249 249 250 251 252 253 253 253 254 256 258 258 259 261 263 265 267 268 269 269 270 271 272 273 274 276 276 277 279 280 281 281 282 283 283 284 284 285 285
252 251 251 250 249 248 249 251 252 253 254 254 255 256 258 258 259 260 263 265 265 267 268 269 269 270 271 272 274 276 276 277 278 280 281 281 282 282 282 284 282 284 284
251 251 250 249 249 249 249 251 252 253 253 254 255 255 256 257 259 261 263 265 265 266 267 269 269 270 271 272 274 275 276 277 279 280 281 281 282 283 284 282 281 282 283
251 250 250 250 250 249 249 250 252 252 252 253 254 255 256 258 261 264 264 265 265 266 267 269 270 271 271 272 274 275 276 277 279 280 280 281 282 282 282 283 282 282 283
251 251 251 251 250 249 250 251 252 252 252 253 254 256 257 258 261 264 264 265 265 266 268 269 270 271 271 272 273 275 276 277 278 279 280 281 281 281 280 281 282 282 283
253 253 253 252 251 249 250 251 251 252 252 252 255 257 258 260 261 263 264 265 266 266 268 269 270 271 272 273 274 275 276 277 278 279 279 280 280 281 281 281 282 282 282
255 255 254 252 250 249 249 249 250 251 251 252 254 256 259 261 263 264 264 264 265 267 268 270 271 272 273 273 274 276 276 277 277 278 278 279 279 280 280 281 282 281 281
256 255 254 251 248 248 248 249 250 251 252 253 255 258 260 262 264 265 266 265 265 267 269 270 272 273 274 274 275 275 276 276 277 277 278 278 279 279 280 280 280 280 280
259 256 254 250 249 249 247 250 251 253 253 255 257 260 261 264 265 266 267 267 267 268 270 271 272 273 274 275 275 276 276 276 276 277 278 278 278 279 279 279 278 279 279
259 257 252 250 250 249 249 251 253 254 255 257 257 259 261 264 266 267 268 269 269 270 271 272 273 274 275 275 276 276 276 276 276 277 278 278 278 278 278 278 277 278 278
256 255 254 252 250 250 251 253 255 256 258 259 258 259 261 264 266 269 268 269 271 272 272 273 274 276 276 276 277 277 277 278 277 278 278 278 278 277 277 276 277 277 277
257 256 256 254 252 251 253 257 256 257 259 260 260 261 263 265 268 270 270 271 272 274 275 275 276 277 277 277 277 277 277 278 277 278 278 278 278 277 276 276 276 276 277
260 260 259 256 253 253 255 258 258 261 262 262 262 264 266 267 270 271 272 273 274 276 276 277 278 278 278 278 278 278 278 278 277 277 278 277 277 277 276 276 276 275 275
262 261 261 259 259 257 257 259 260 263 264 264 264 266 268 270 271 272 274 275 275 276 278 279 278 279 280 280 279 278 278 277 277 277 276 276 276 276 276 276 277 276 275
262 262 262 262 263 262 262 261 264 265 266 266 267 269 270 271 272 274 275 276 277 278 279 279 280 281 281 280 279 278 277 277 277 277 276 276 276 276 276 277 277 276 276
263 264 262 262 263 264 264 263 265 265 267 268 270 272 272 273 273 275 276 277 278 279 279 279 281 282 282 280 279 279 278 277 278 277 277 276 276 276 276 277 277 277 277
264 264 263 263 264 265 265 266 267 267 269 270 271 273 274 274 274 275 276 278 279 279 279 280 281 282 282 280 279 279 279 279 279 278 278 278 278 278 278 278 277 277 278
264 264 264 264 265 265 265 266 268 268 269 270 270 272 275 275 275 277 278 279 280 280 280 281 281 281 281 281 280 280 280 280 280 279 279 278 278 278 279 279 279 279 278
264 265 267 266 267 268 268 269 270 270 271 271 272 273 276 277 277 279 278 280 280 281 281 281 281 282 282 281 281 281 282 283 282 281 280 280 279 279 279 279 279 279 279
265 266 268 269 270 271 272 273 273 272 272 273 273 275 277 279 278 279 279 281 280 279 280 280 281 281 282 281 281 282 283 283 283 282 282 282 281 280 279 279 280 280 280
268 268 269 270 272 273 274 273 273 274 274 274 275 277 278 279 278 279 280 280 279 278 278 279 280 282 281 281 282 283 284 285 285 283 283 283 282 281 281 281 281 280 279
270 269 270 271 272 273 274 275 275 275 275 276 277 278 279 280 279 279 280 280 279 278 278 279 280 281 281 282 283 285 286 286 285 284 284 284 283 283 282 282 281 279 279
Height
5799 5800 5802 5804 5806 5807 5809 5811 5812 5813 5815 5816 5817 5818 5819 5819 5820 5821 5821 5821 5821 5821 5821 5821 5820 5820 5819 5818 5818 5817 5816 5815 5814 5813 5812 5811 5810 5809 5808 5807 5805 5804 5803
5789 5791 5793 5795 5797 5799 5801 5803 5805 5806 5808 5809 5810 5811 5812 5813 5814 5814 5815 5815 5815 5815 5815 5815 5814 5814 5813 5812 5811 5811 5810 5809 5808 5807 5806 5805 5804 5803 5801 5800 5799 5798 5797
5779 5781 5784 5786 5788 5790 5792 5794 5796 5798 5800 5801 5803 5804 5805 5806 5807 5807 5808 5808 5808 5808 5808 5808 5808 5807 5806 5805 5805 5804 5803 5802 5802 5801 5800 5799 5797 5796 5795 5794 5792 5791 5790
5769 5771 5773 5776 5778 5781 5783 5785 5787 5790 5791 5793 5795 5796 5798 5798 5799 5800 5801 5801 5801 5801 5801 5801 5801 5800 5799 5798 5798 5797 5796 5795 5794 5794 5792 5791 5790 5789 5788 5787 5785 5784 5782
5759 5760 5763 5765 5768 5771 5773 5776 5778 5780 5783 5784 5786 5788 5789 5790 5791 5792 5793 5793 5793 5793 5793 5793 5793 5792 5792 5791 5790 5789 5789 5788 5787 5786 5785 5784 5782 5781 5780 5779 5778 5776 5775
5749 5751 5753 5755 5758 5761 5763 5766 5769 5771 5773 5775 5777 5779 5781 5782 5783 5784 5785 5785 5785 5785 5785 5785 5785 5784 5784 5783 5782 5781 5780 5780 5779 5778 5776 5775 5774 5773 5772 5771 5769 5768 5766
5739 5741 5743 5745 5748 5750 5753 5756 5759 5761 5764 5766 5768 5770 5771 5773 5774 5775 5776 5776 5777 5776 5776 5776 5776 5776 5775 5774 5774 5773 5772 5771 5770 5769 5767 5766 5765 5764 5763 5761 5760 5759 5757
5728 5731 5733 5735 5738 5741 5743 5746 5749 5752 5754 5756 5759 5760 5762 5764 5765 5766 5766 5767 5767 5767 5767 5767 5766 5766 5766 5765 5764 5763 5762 5761 5760 5759 5758 5756 5755 5754 5753 5751 5750 5749 5747
5718 5720 5723 5725 5728 5730 5733 5736 5738 5741 5744 5746 5749 5751 5752 5754 5756 5757 5757 5757 5757 5757 5757 5757 5756 5756 5756 5755 5754 5753 5752 5751 5750 5748 5747 5746 5745 5744 5743 5741 5739 5738 5736
5709 5711 5712 5715 5717 5720 5723 5725 5728 5730 5733 5736 5738 5740 5742 5744 5746 5747 5748 5748 5748 5747 5747 5747 5746 5745 5745 5744 5743 5742 5741 5740 5738 5737 5736 5735 5733 5732 5731 5729 5727 5726 5725
5700 5701 5703 5705 5707 5710 5712 5715 5717 5719 5722 5725 5727 5729 5731 5732 5734 5735 5737 5738 5737 5737 5736 5736 5735 5734 5733 5732 5731 5730 5729 5728 5726 5725 5724 5722 5721 5720 5718 5717 5715 5714 5712
5690 5691 5692 5694 5697 5699 5702 5704 5707 5709 5711 5714 5716 5718 5720 5721 5722 5723 5724 5725 5726 5726 5725 5724 5723 5722 5721 5719 5718 5717 5716 5715 5713 5712 5710 5709 5708 5707 5705 5704 5702 5701 5699
5681 5681 5682 5684 5686 5689 5691 5694 5697 5699 5701 5703 5705 5707 5708 5709 5710 5711 5711 5712 5713 5714 5714 5713 5711 5709 5707 5706 5704 5703 5702 5700 5699 5697 5696 5695 5694 5692 5691 5689 5688 5687 5686
5671 5672 5673 5675 5677 5679 5682 5684 5686 5689 5690 5692 5694 5696 5697 5698 5698 5698 5699 5699 5699 5701 5701 5700 5698 5696 5694 5692 5690 5689 5687 5685 5684 5683 5681 5680 5679 5677 5676 5675 5673 5672 5671
5663 5663 5664 5666 5668 5670 5672 5675 5677 5678 5680 5682 5684 5685 5686 5686 5686 5686 5686 5686 5686 5686 5687 5686 5684 5682 5679 5677 5675 5673 5671 5670 5668 5667 5665 5664 5663 5661 5660 5659 5658 5657 5656
5655 5655 5656 5657 5659 5661 5663 5665 5667 5668 5670 5671 5673 5673 5674 5674 5674 5674 5673 5673 5671 5671 5671 5672 5670 5667 5664 5662 5660 5657 5656 5654 5652 5651 5649 5648 5646 5645 5643 5643 5642 5640 5639
5646 5647 5648 5649 5650 5652 5654 5655 5657 5658 5659 5660 5661 5662 5662 5662 5662 5661 5660 5659 5658 5656 5655 5657 5654 5652 5649 5647 5644 5641 5639 5637 5636 5634 5632 5631 5629 5628 5627 5626 5624 5623 5623
5637 5638 5639 5640 5641 5643 5644 5645 5646 5647 5649 5649 5650 5650 5650 5649 5649 5648 5647 5646 5644 5642 5640 5640 5640 5637 5634 5631 5628 5625 5623 5620 5619 5617 5615 5614 5613 5612 5610 5609 5608 5607 5606
5629 5630 5631 5631 5632 5633 5634 5635 5636 5637 5637 5638 5638 5638 5637 5637 5636 5635 5634 5632 5630 5627 5625 5623 5623 5621 5618 5615 5612 5609 5607 5604 5602 5600 5598 5597 5596 5595 5594 5593 5591 5591 5590
5620 5621 5622 5622 5623 5623 5624 5625 5625 5626 5626 5626 5626 5626 5625 5624 5623 5622 5620 5618 5616 5613 5611 5608 5606 5605 5602 5599 5596 5594 5592 5589 5587 5585 5583 5582 5580 5579 5578 5577 5576 5575 5574
5612 5612 5612 5613 5614 5614 5614 5614 5614 5615 5615 5615 5614 5613 5612 5611 5610 5608 5606 5604 5601 5599 5596 5593 5591 5589 5587 5585 5582 5579 5577 5575 5573 5570 5568 5568 5566 5565 5564 5563 5561 5560 5559
5602 5602 5603 5603 5604 5603 5603 5603 5603 5603 5603 5603 5602 5602 5600 5599 5597 5595 5592 5590 5587 5585 5582 5580 5577 5575 5574 5571 5569 5566 5564 5562 5560 5559 5555 5554 5552 5551 5550 5548 5546 5545 5543
5592 5593 5593 5593 5593 5593 5592 5592 5592 5591 5591 5591 5590 5589 5588 5586 5583 5581 5579 5577 5574 5571 5568 5566 5564 5562 5561 5559 5556 5554 5551 5548 5546 5544 5541 5541 5539 5538 5536 5534 5532 5530 5528
5583 5583 5583 5583 5582 5582 5582 5581 5580 5580 5579 5578 5577 5576 5575 5573 5570 5568 5566 5564 5561 5559 5556 5554 5552 5550 5548 5545 5543 5541 5538 5536 5533 5531 5528 5527 5526 5524 5523 5520 5518 5515 5514
5573 5573 5573 5572 5572 5571 5571 5570 5569 5568 5568 5567 5565 5563 5562 5560 5558 5555 5553 5551 5549 5547 5544 5542 5540 5538 5535 5533 5531 5529 5526 5524 5522 5520 5516 5514 5513 5511 5509 5507 5504 5501 5500
5562 5562 5562 5562 5561 5561 5560 5559 5558 5557 5557 5556 5554 5552 5550 5548 5546 5543 5540 5538 5537 5535 5533 5531 5529 5527 5524 5522 5520 5517 5514 5512 5509 5508 5505 5502 5500 5497 5496 5495 5491 5489 5487